Regional Weather Roundup
Issued by NWS

Home | Current Version | Previous Version | Text Only | Print | Product List | Glossary On
Versions: 1 2 3 4 5 6 7 8 9 10 11 12 13 14 15 16 17 18 19 20 21 22 23 24 25 26 27 28 29 30 31 32 33 34 35 36 37 38 39 40 41 42 43 44 45 46 47 48 49 50
555
ASUS46 KSTO 110615
RWRCA

NORTHERN AND CENTRAL CA REGIONAL WEATHER ROUNDUP
NATIONAL WEATHER SERVICE SACRAMENTO CA
1000 PM PST SAT DEC 10 2016

NOTE: FAIR INDICATES FEW OR NO CLOUDS BELOW 12,000 FEET WITH NO
SIGNIFICANT WEATHER AND/OR OBSTRUCTIONS TO VISIBILITY.

CAZ001-003-110700-
NORTHWEST AREA

CITY           SKY/WX    TMP DP  RH WIND       PRES   REMARKS
CRESCENT CITY  CLOUDY    46  43  89 SE5       30.16S
UKIAH          CLEAR     44  42  93 CALM      30.14R
$$

CAZ006-505>513-110700-
BAY AREA

CITY           SKY/WX    TMP DP  RH WIND       PRES   REMARKS
SANTA ROSA     CLEAR     47  45  93 CALM      30.12R
SAN RAFAEL     N/A       55  MM  MM MISG
NAPA           MOCLDY    49  45  86 CALM      30.12R
CONCORD        CLOUDY    54  46  74 S6        30.12R
OAKLAND CITY   N/A       54  MM  MM MISG
OAKLAND        CLOUDY    54  51  90 W3        30.14R
SAN FRAN CITY  N/A       54  MM  85 MISG
SAN FRAN ARPT  CLOUDY    53  49  86 W12       30.14R
LIVERMORE      CLOUDY    54  48  80 W9        30.11R
HAYWARD        CLOUDY    54  50  86 SW3       30.13R
REDWOOD CITY   N/A       53  MM  86 MISG
MOFFETT ARPT   CLOUDY    55  49  80 CALM      30.14R
SAN JOSE ARPT  CLOUDY    56  52  86 W5        30.13R
$$
CAZ034-037-514>518-110700-
CENTRAL COAST

CITY           SKY/WX    TMP DP  RH WIND       PRES   REMARKS
WATSONVILLE    FOG       57  57 100 CALM      30.11F VSB 1
SALINAS        CLOUDY    61  58  90 NW5       30.10S
MONTEREY       CLOUDY    60  58  92 SW7       30.11R
SAN LUIS OBISP LGT RAIN  61  59  93 CALM      30.14S FOG
SANTA MARIA    CLOUDY    58  58 100 CALM      30.15F FOG
$$
CAZ015-016-110700-
NORTHERN SACRAMENTO VALLEY

CITY           SKY/WX    TMP DP  RH WIND       PRES   REMARKS
REDDING        CLEAR     41  40  96 W5        30.08R
RED BLUFF      CLEAR     45  38  76 N7        30.09R
OROVILLE       MOCLDY    54  51  90 CALM      30.09R
$$
CAZ016>018-110700-
SOUTHERN SACRAMENTO VALLEY

CITY           SKY/WX    TMP DP  RH WIND       PRES   REMARKS
AUBURN         CLOUDY    54  54 100 S7        30.10R
BEALE AFB      MOCLDY    52  52 100 SE8       30.07R FOG
LINCOLN        FAIR      50  48  93 SE5       30.08R
MARYSVILLE     FOG       49  47  93 NE3       30.09R VSB 1/4
SAC INTL ARPT  MOCLDY    53  49  86 SW6       30.07R
MATHER AIRPORT NOT AVBL
DOWNTOWN SAC   N/A       53  MM  MM MISG
SAC EXEC ARPT  CLOUDY    51  51 100 S3        30.09R
VACAVILLE      MOCLDY    52  45  77 W6        30.09R
TRAVIS AFB     MOCLDY    51  49  92 SE9       30.08R
$$
CAZ019>021-110700-
SAN JOAQUIN VALLEY

CITY           SKY/WX    TMP DP  RH WIND       PRES   REMARKS
STOCKTON       CLOUDY    57  55  93 W10       30.09R
MODESTO        CLOUDY    60  57  89 CALM      30.09S
MERCED         CLOUDY    58  56  93 CALM      30.09S
LEMOORE        CLOUDY    61  58  90 NE6       30.09S
FRESNO         CLOUDY    60  55  83 E6        30.09F
HANFORD        CLOUDY    61  60  97 NE3       30.09S
PORTERVILLE    LGT RAIN  61  56  83 S5        30.12R
BAKERSFIELD    CLOUDY    62  53  72 N5        30.10S
$$
CAZ011-012-071-110700-
NORTHERN MOUNTAINS

CITY           SKY/WX    TMP DP  RH WIND       PRES   REMARKS
YREKA          CLEAR     32  27  81 SE6       30.10R WCI  26
MOUNT SHASTA   CLEAR     31  28  89 CALM      30.07R
ALTURAS        CLOUDY    34  29  82 NE10      30.06R WCI  26
$$
CAZ011-012-071-110700-
SIERRA NEVADA MTNS

CITY           SKY/WX    TMP DP  RH WIND       PRES   REMARKS
BLUE CANYON    CLOUDY    41  39  93 S5        30.11R
TRUCKEE        MOCLDY    39  32  75 W8G20     30.06R WCI  34
TAHOE VLY ARPT MOCLDY    42  33  70 SW14G25   30.05S
MAMMOTH LAKES  DRIZZLE   47  33  58 SW25G61   30.03F
$$




USA.gov is the U.S. government's official web portal to all federal, state and local government web resources and services.